Year,Month,Day,Hour,Minute,Value (Times are PST for temperature in C)
2008,01,24,00,00,-3.10
2008,01,24,00,01,-3.10
2008,01,24,00,02,-3.10
2008,01,24,00,03,-3.10
2008,01,24,00,04,-3.10
2008,01,24,00,05,-3.10
2008,01,24,00,06,-3.10
2008,01,24,00,07,-3.20
2008,01,24,00,08,-3.20
2008,01,24,00,09,-3.20
2008,01,24,00,10,-3.20
2008,01,24,00,11,-3.30
2008,01,24,00,12,-3.30
2008,01,24,00,13,-3.30
2008,01,24,00,14,-3.30
2008,01,24,00,15,-3.30
2008,01,24,00,16,-3.30
2008,01,24,00,17,-3.30
2008,01,24,00,18,-3.30
2008,01,24,00,19,-3.30
2008,01,24,00,20,-3.30
2008,01,24,00,21,-3.30
2008,01,24,00,22,-3.30
2008,01,24,00,23,-3.30
2008,01,24,00,24,-3.30
2008,01,24,00,25,-3.30
2008,01,24,00,26,-3.30
2008,01,24,00,27,-3.30
2008,01,24,00,28,-3.30
2008,01,24,00,29,-3.30
2008,01,24,00,30,-3.30
2008,01,24,00,31,-3.30
2008,01,24,00,32,-3.30
2008,01,24,00,33,-3.30
2008,01,24,00,34,-3.30
2008,01,24,00,35,-3.30
2008,01,24,00,36,-3.30
2008,01,24,00,37,-3.30
2008,01,24,00,38,-3.30
2008,01,24,00,39,-3.30
2008,01,24,00,40,-3.30
2008,01,24,00,41,-3.30
2008,01,24,00,42,-3.30
2008,01,24,00,43,-3.30
2008,01,24,00,44,-3.30
2008,01,24,00,45,-3.30
2008,01,24,00,46,-3.30
2008,01,24,00,47,-3.30
2008,01,24,00,48,-3.30
2008,01,24,00,49,-3.30
2008,01,24,00,50,-3.30
2008,01,24,00,51,-3.30
2008,01,24,00,52,-3.30
2008,01,24,00,53,-3.30
2008,01,24,00,54,-3.30
2008,01,24,00,55,-3.20
2008,01,24,00,56,-3.20
2008,01,24,00,57,-3.20
2008,01,24,00,58,-3.20
2008,01,24,00,59,-3.30
2008,01,24,01,00,-3.30
2008,01,24,01,01,-3.30
2008,01,24,01,02,-3.40
2008,01,24,01,03,-3.40
2008,01,24,01,04,-3.40
2008,01,24,01,05,-3.30
2008,01,24,01,06,-3.30
2008,01,24,01,07,-3.30
2008,01,24,01,08,-3.20
2008,01,24,01,09,-3.20
2008,01,24,01,10,-3.10
2008,01,24,01,11,-3.00
2008,01,24,01,12,-3.00
2008,01,24,01,13,-2.90
2008,01,24,01,14,-2.90
2008,01,24,01,15,-2.90
2008,01,24,01,16,-2.80
2008,01,24,01,17,-2.80
2008,01,24,01,18,-2.80
2008,01,24,01,19,-2.90
2008,01,24,01,20,-3.00
2008,01,24,01,21,-3.10
2008,01,24,01,22,-3.10
2008,01,24,01,23,-3.20
2008,01,24,01,24,-3.20
2008,01,24,01,25,-3.20
2008,01,24,01,26,-3.20
2008,01,24,01,27,-3.20
2008,01,24,01,28,-3.20
2008,01,24,01,29,-3.20
2008,01,24,01,30,-3.20
2008,01,24,01,31,-3.20
2008,01,24,01,32,-3.20
2008,01,24,01,33,-3.20
2008,01,24,01,34,-3.20
2008,01,24,01,35,-3.20
2008,01,24,01,36,-3.20
2008,01,24,01,37,-3.30
2008,01,24,01,38,-3.30
2008,01,24,01,39,-3.40
2008,01,24,01,40,-3.40
2008,01,24,01,41,-3.30
2008,01,24,01,42,-3.30
2008,01,24,01,43,-3.30
2008,01,24,01,44,-3.30
2008,01,24,01,45,-3.30
2008,01,24,01,46,-3.30
2008,01,24,01,47,-3.20
2008,01,24,01,48,-3.20
2008,01,24,01,49,-3.10
2008,01,24,01,50,-3.00
2008,01,24,01,51,-2.90
2008,01,24,01,52,-2.80
2008,01,24,01,53,-2.80
2008,01,24,01,54,-2.80
2008,01,24,01,55,-2.90
2008,01,24,01,56,-3.00
2008,01,24,01,57,-3.00
2008,01,24,01,58,-3.10
2008,01,24,01,59,-3.10
2008,01,24,02,00,-3.10
2008,01,24,02,01,-3.20
2008,01,24,02,02,-3.20
2008,01,24,02,03,-3.20
2008,01,24,02,04,-3.20
2008,01,24,02,05,-3.30
2008,01,24,02,06,-3.30
2008,01,24,02,07,-3.30
2008,01,24,02,08,-3.30
2008,01,24,02,09,-3.40
2008,01,24,02,10,-3.40
2008,01,24,02,11,-3.40
2008,01,24,02,12,-3.30
2008,01,24,02,13,-3.30
2008,01,24,02,14,-3.20
2008,01,24,02,15,-3.20
2008,01,24,02,16,-3.10
2008,01,24,02,17,-3.00
2008,01,24,02,18,-2.90
2008,01,24,02,19,-2.90
2008,01,24,02,20,-2.90
2008,01,24,02,21,-2.90
2008,01,24,02,22,-3.00
2008,01,24,02,23,-3.10
2008,01,24,02,24,-3.20
2008,01,24,02,25,-3.20
2008,01,24,02,26,-3.30
2008,01,24,02,27,-3.30
2008,01,24,02,28,-3.30
2008,01,24,02,29,-3.30
2008,01,24,02,30,-3.30
2008,01,24,02,31,-3.30
2008,01,24,02,32,-3.30
2008,01,24,02,33,-3.30
2008,01,24,02,34,-3.20
2008,01,24,02,35,-3.20
2008,01,24,02,36,-3.20
2008,01,24,02,37,-3.10
2008,01,24,02,38,-3.10
2008,01,24,02,39,-3.10
2008,01,24,02,40,-3.00
2008,01,24,02,41,-3.00
2008,01,24,02,42,-3.00
2008,01,24,02,43,-2.90
2008,01,24,02,44,-2.90
2008,01,24,02,45,-3.00
2008,01,24,02,46,-3.00
2008,01,24,02,47,-3.00
2008,01,24,02,48,-3.10
2008,01,24,02,49,-3.10
2008,01,24,02,50,-3.20
2008,01,24,02,51,-3.20
2008,01,24,02,52,-3.20
2008,01,24,02,53,-3.20
2008,01,24,02,54,-3.20
2008,01,24,02,55,-3.30
2008,01,24,02,56,-3.30
2008,01,24,02,57,-3.30
2008,01,24,02,58,-3.30
2008,01,24,02,59,-3.40
2008,01,24,03,00,-3.40
2008,01,24,03,01,-3.40
2008,01,24,03,02,-3.40
2008,01,24,03,03,-3.40
2008,01,24,03,04,-3.40
2008,01,24,03,05,-3.40
2008,01,24,03,06,-3.40
2008,01,24,03,07,-3.40
2008,01,24,03,08,-3.30
2008,01,24,03,09,-3.30
2008,01,24,03,10,-3.30
2008,01,24,03,11,-3.20
2008,01,24,03,12,-3.20
2008,01,24,03,13,-3.20
2008,01,24,03,14,-3.10
2008,01,24,03,15,-3.10
2008,01,24,03,16,-3.10
2008,01,24,03,17,-3.00
2008,01,24,03,18,-3.00
2008,01,24,03,19,-3.00
2008,01,24,03,20,-2.90
2008,01,24,03,21,-2.90
2008,01,24,03,22,-2.90
2008,01,24,03,23,-2.90
2008,01,24,03,24,-2.90
2008,01,24,03,25,-2.90
2008,01,24,03,26,-2.90
2008,01,24,03,27,-2.90
2008,01,24,03,28,-2.90
2008,01,24,03,29,-3.00
2008,01,24,03,30,-3.00
2008,01,24,03,31,-3.10
2008,01,24,03,32,-3.10
2008,01,24,03,33,-3.20
2008,01,24,03,34,-3.20
2008,01,24,03,35,-3.20
2008,01,24,03,36,-3.20
2008,01,24,03,37,-3.20
2008,01,24,03,38,-3.10
2008,01,24,03,39,-3.10
2008,01,24,03,40,-3.10
2008,01,24,03,41,-3.00
2008,01,24,03,42,-3.00
2008,01,24,03,43,-3.00
2008,01,24,03,44,-3.00
2008,01,24,03,45,-3.10
2008,01,24,03,46,-3.10
2008,01,24,03,47,-3.10
2008,01,24,03,48,-3.20
2008,01,24,03,49,-3.20
2008,01,24,03,50,-3.20
2008,01,24,03,51,-3.20
2008,01,24,03,52,-3.20
2008,01,24,03,53,-3.20
2008,01,24,03,54,-3.10
2008,01,24,03,55,-3.10
2008,01,24,03,56,-3.10
2008,01,24,03,57,-3.10
2008,01,24,03,58,-3.10
2008,01,24,03,59,-3.10
2008,01,24,04,00,-3.10
2008,01,24,04,01,-3.10
2008,01,24,04,02,-3.10
2008,01,24,04,03,-3.10
2008,01,24,04,04,-3.10
2008,01,24,04,05,-3.20
2008,01,24,04,25,-2.80
2008,01,24,04,32,-2.90
2008,01,24,04,47,-2.80
2008,01,24,05,01,-2.40
2008,01,24,05,18,-2.60
2008,01,24,05,41,-2.50
2008,01,24,05,58,-2.90
2008,01,24,06,15,-2.80
2008,01,24,06,40,-3.10
2008,01,24,06,48,-3.30
2008,01,24,07,16,-2.90
2008,01,24,07,18,-3.10
2008,01,24,07,44,-3.20
2008,01,24,07,55,-3.20
2008,01,24,07,56,-3.20
2008,01,24,07,57,-3.20
2008,01,24,07,58,-3.20
2008,01,24,07,59,-3.10
2008,01,24,08,00,-3.00
2008,01,24,08,01,-2.90
2008,01,24,08,02,-2.80
2008,01,24,08,03,-2.70
2008,01,24,08,04,-2.70
2008,01,24,08,05,-2.60
2008,01,24,08,06,-2.60
2008,01,24,08,07,-2.60
2008,01,24,08,08,-2.60
2008,01,24,08,09,-2.70
2008,01,24,08,10,-2.70
2008,01,24,08,11,-2.80
2008,01,24,08,12,-2.80
2008,01,24,08,13,-2.90
2008,01,24,08,14,-2.90
2008,01,24,08,15,-3.00
2008,01,24,08,16,-3.00
2008,01,24,08,17,-3.10
2008,01,24,08,18,-3.10
2008,01,24,08,19,-3.10
2008,01,24,08,20,-3.10
2008,01,24,08,21,-3.10
2008,01,24,08,22,-3.20
2008,01,24,08,23,-3.10
2008,01,24,08,24,-3.00
2008,01,24,08,25,-2.90
2008,01,24,08,26,-2.80
2008,01,24,08,27,-2.70
2008,01,24,08,28,-2.60
2008,01,24,08,29,-2.50
2008,01,24,08,30,-2.40
2008,01,24,08,31,-2.30
2008,01,24,08,32,-2.20
2008,01,24,08,33,-2.20
2008,01,24,08,34,-2.10
2008,01,24,08,35,-2.10
2008,01,24,08,36,-2.10
2008,01,24,08,37,-2.10
2008,01,24,08,38,-2.20
2008,01,24,08,39,-2.30
2008,01,24,08,40,-2.40
2008,01,24,08,41,-2.50
2008,01,24,08,42,-2.60
2008,01,24,08,43,-2.70
2008,01,24,08,44,-2.80
2008,01,24,08,45,-2.80
2008,01,24,08,46,-2.90
2008,01,24,08,47,-2.90
2008,01,24,08,48,-2.90
2008,01,24,08,49,-2.90
2008,01,24,08,50,-2.90
2008,01,24,08,51,-2.90
2008,01,24,08,52,-2.90
2008,01,24,08,53,-2.80
2008,01,24,08,54,-2.80
2008,01,24,08,55,-2.80
2008,01,24,08,56,-2.70
2008,01,24,08,57,-2.70
2008,01,24,08,58,-2.70
2008,01,24,08,59,-2.60
2008,01,24,09,00,-2.60
2008,01,24,09,01,-2.60
2008,01,24,09,02,-2.60
2008,01,24,09,03,-2.60
2008,01,24,09,04,-2.60
2008,01,24,09,05,-2.50
2008,01,24,09,06,-2.50
2008,01,24,09,07,-2.40
2008,01,24,09,08,-2.30
2008,01,24,09,09,-2.30
2008,01,24,09,10,-2.20
2008,01,24,09,11,-2.10
2008,01,24,09,12,-2.00
2008,01,24,09,13,-1.90
2008,01,24,09,14,-1.90
2008,01,24,09,15,-1.80
2008,01,24,09,16,-1.80
2008,01,24,09,17,-1.80
2008,01,24,09,18,-1.80
2008,01,24,09,19,-1.80
2008,01,24,09,20,-1.80
2008,01,24,09,21,-1.80
2008,01,24,09,22,-1.70
2008,01,24,09,23,-1.70
2008,01,24,09,24,-1.60
2008,01,24,09,25,-1.60
2008,01,24,09,26,-1.60
2008,01,24,09,27,-1.50
2008,01,24,09,28,-1.50
2008,01,24,09,29,-1.40
2008,01,24,09,30,-1.40
2008,01,24,09,31,-1.40
2008,01,24,09,32,-1.30
2008,01,24,09,33,-1.30
2008,01,24,09,34,-1.30
2008,01,24,09,35,-1.20
2008,01,24,09,36,-1.20
2008,01,24,09,37,-1.20
2008,01,24,09,38,-1.10
2008,01,24,09,39,-1.10
2008,01,24,09,40,-1.00
2008,01,24,09,41,-1.00
2008,01,24,09,42,-0.90
2008,01,24,09,43,-0.80
2008,01,24,09,44,-0.70
2008,01,24,09,45,-0.60
2008,01,24,09,46,-0.50
2008,01,24,09,47,-0.40
2008,01,24,09,48,-0.30
2008,01,24,09,49,-0.20
2008,01,24,09,50,-0.10
2008,01,24,09,51,0.00
2008,01,24,09,52,0.10
2008,01,24,09,53,0.10
2008,01,24,09,54,0.20
2008,01,24,09,55,0.30
2008,01,24,09,56,0.30
2008,01,24,09,57,0.40
2008,01,24,09,58,0.40
2008,01,24,09,59,0.40
2008,01,24,10,00,0.40
2008,01,24,10,01,0.50
2008,01,24,10,02,0.50
2008,01,24,10,03,0.50
2008,01,24,10,04,0.50
2008,01,24,10,05,0.50
2008,01,24,10,06,0.50
2008,01,24,10,07,0.50
2008,01,24,10,08,0.50
2008,01,24,10,09,0.50
2008,01,24,10,10,0.50
2008,01,24,10,11,0.50
2008,01,24,10,12,0.60
2008,01,24,10,13,0.60
2008,01,24,10,14,0.60
2008,01,24,10,15,0.60
2008,01,24,10,16,0.60
2008,01,24,10,17,0.60
2008,01,24,10,18,0.70
2008,01,24,10,19,0.70
2008,01,24,10,20,0.70
2008,01,24,10,21,0.70
2008,01,24,10,22,0.70
2008,01,24,10,23,0.70
2008,01,24,10,24,0.70
2008,01,24,10,25,0.70
2008,01,24,10,26,0.70
2008,01,24,10,27,0.70
2008,01,24,10,28,0.70
2008,01,24,10,29,0.70
2008,01,24,10,30,0.80
2008,01,24,10,31,0.80
2008,01,24,10,32,0.80
2008,01,24,10,33,0.90
2008,01,24,10,34,0.90
2008,01,24,10,35,0.90
2008,01,24,10,36,1.00
2008,01,24,10,37,1.00
2008,01,24,10,38,1.10
2008,01,24,10,39,1.10
2008,01,24,10,40,1.20
2008,01,24,10,41,1.20
2008,01,24,10,42,1.30
2008,01,24,10,43,1.30
2008,01,24,10,44,1.30
2008,01,24,10,45,1.30
2008,01,24,10,46,1.50
2008,01,24,10,47,1.60
2008,01,24,10,48,1.60
2008,01,24,10,49,1.70
2008,01,24,10,50,1.80
2008,01,24,10,51,1.80
2008,01,24,10,52,1.90
2008,01,24,10,53,1.90
2008,01,24,10,54,2.00
2008,01,24,10,55,2.00
2008,01,24,10,56,2.10
2008,01,24,10,57,2.10
2008,01,24,10,58,2.10
2008,01,24,10,59,2.20
2008,01,24,11,00,2.20
2008,01,24,11,01,2.20
2008,01,24,11,02,2.30
2008,01,24,11,03,2.30
2008,01,24,11,04,2.30
2008,01,24,11,05,2.40
2008,01,24,11,06,2.40
2008,01,24,11,07,2.50
2008,01,24,11,08,2.50
2008,01,24,11,09,2.60
2008,01,24,11,10,2.60
2008,01,24,11,11,2.60
2008,01,24,11,12,2.60
2008,01,24,11,13,2.60
2008,01,24,11,14,2.60
2008,01,24,11,15,2.60
2008,01,24,11,16,2.70
2008,01,24,11,17,2.70
2008,01,24,11,18,2.70
2008,01,24,11,19,2.70
2008,01,24,11,20,2.80
2008,01,24,11,21,2.80
2008,01,24,11,22,2.80
2008,01,24,11,23,2.80
2008,01,24,11,24,2.90
2008,01,24,11,25,2.90
2008,01,24,11,26,2.90
2008,01,24,11,27,3.00
2008,01,24,11,28,2.90
2008,01,24,11,29,3.00
2008,01,24,11,30,3.00
2008,01,24,11,31,3.00
2008,01,24,11,32,3.10
2008,01,24,11,33,3.10
2008,01,24,11,34,3.20
2008,01,24,11,35,3.20
2008,01,24,11,36,3.20
2008,01,24,11,37,3.20
2008,01,24,11,38,3.30
2008,01,24,11,39,3.30
2008,01,24,11,40,3.30
2008,01,24,11,41,3.30
2008,01,24,11,42,3.30
2008,01,24,11,43,3.30
2008,01,24,11,44,3.40
2008,01,24,11,45,3.40
2008,01,24,11,46,3.50
2008,01,24,11,47,3.50
2008,01,24,11,48,3.60
2008,01,24,11,49,3.60
2008,01,24,11,50,3.70
2008,01,24,11,51,3.70
2008,01,24,11,52,3.70
2008,01,24,11,53,3.70
2008,01,24,11,54,3.70
2008,01,24,11,55,3.80
2008,01,24,11,56,3.90
2008,01,24,11,57,4.00
2008,01,24,11,58,4.10
2008,01,24,11,59,4.20
2008,01,24,12,00,4.30
2008,01,24,12,01,4.20
2008,01,24,12,02,4.20
2008,01,24,12,03,4.20
2008,01,24,12,04,4.20
2008,01,24,12,05,4.30
2008,01,24,12,06,4.30
2008,01,24,12,07,4.30
2008,01,24,12,08,4.30
2008,01,24,12,09,4.30
2008,01,24,12,10,4.30
2008,01,24,12,11,4.30
2008,01,24,12,12,4.30
2008,01,24,12,13,4.30
2008,01,24,12,14,4.30
2008,01,24,12,15,4.20
2008,01,24,12,16,4.20
2008,01,24,12,17,4.20
2008,01,24,12,18,4.20
2008,01,24,12,19,4.20
2008,01,24,12,20,4.20
2008,01,24,12,21,4.20
2008,01,24,12,22,4.20
2008,01,24,12,23,4.20
2008,01,24,12,24,4.20
2008,01,24,12,25,4.10
2008,01,24,12,26,4.10
2008,01,24,12,27,4.10
2008,01,24,12,28,4.20
2008,01,24,12,29,4.20
2008,01,24,12,30,4.20
2008,01,24,12,31,4.20
2008,01,24,12,32,4.20
2008,01,24,12,33,4.20
2008,01,24,12,34,4.30
2008,01,24,12,35,4.30
2008,01,24,12,36,4.30
2008,01,24,12,37,4.30
2008,01,24,12,38,4.30
2008,01,24,12,39,4.30
2008,01,24,12,40,4.30
2008,01,24,12,41,4.30
2008,01,24,12,42,4.30
2008,01,24,12,43,4.30
2008,01,24,12,44,4.30
2008,01,24,12,45,4.30
2008,01,24,12,46,4.30
2008,01,24,12,47,4.40
2008,01,24,12,48,4.40
2008,01,24,12,49,4.40
2008,01,24,12,50,4.50
2008,01,24,12,51,4.50
2008,01,24,12,52,4.50
2008,01,24,12,53,4.60
2008,01,24,12,54,4.60
2008,01,24,12,55,4.60
2008,01,24,12,56,4.60
2008,01,24,12,57,4.60
2008,01,24,12,58,4.70
2008,01,24,12,59,4.70
2008,01,24,13,00,4.70
2008,01,24,13,01,4.80
2008,01,24,13,02,4.80
2008,01,24,13,03,4.80
2008,01,24,13,04,4.70
2008,01,24,13,05,4.70
2008,01,24,13,06,4.70
2008,01,24,13,07,4.70
2008,01,24,13,08,4.70
2008,01,24,13,09,4.70
2008,01,24,13,10,4.70
2008,01,24,13,11,4.70
2008,01,24,13,12,4.60
2008,01,24,13,13,4.60
2008,01,24,13,14,4.60
2008,01,24,13,15,4.60
2008,01,24,13,16,4.50
2008,01,24,13,17,4.50
2008,01,24,13,18,4.40
2008,01,24,13,19,4.40
2008,01,24,13,20,4.40
2008,01,24,13,21,4.40
2008,01,24,13,22,4.30
2008,01,24,13,23,4.30
2008,01,24,13,24,4.30
2008,01,24,13,25,4.40
2008,01,24,13,26,4.40
2008,01,24,13,27,4.30
2008,01,24,13,28,4.30
2008,01,24,13,29,4.40
2008,01,24,13,30,4.40
2008,01,24,13,31,4.40
2008,01,24,13,32,4.40
2008,01,24,13,33,4.40
2008,01,24,13,34,4.40
2008,01,24,13,35,4.40
2008,01,24,13,36,4.50
2008,01,24,13,37,4.40
2008,01,24,13,38,4.50
2008,01,24,13,39,4.50
2008,01,24,13,40,4.50
2008,01,24,13,41,4.60
2008,01,24,13,42,4.50
2008,01,24,13,43,4.50
2008,01,24,13,44,4.60
2008,01,24,13,45,4.60
2008,01,24,13,46,4.70
2008,01,24,13,47,4.70
2008,01,24,13,48,4.70
2008,01,24,13,49,4.80
2008,01,24,13,50,4.70
2008,01,24,13,51,4.70
2008,01,24,13,52,4.70
2008,01,24,13,53,4.70
2008,01,24,13,54,4.70
2008,01,24,13,55,4.70
2008,01,24,13,56,4.60
2008,01,24,13,57,4.60
2008,01,24,13,58,4.60
2008,01,24,13,59,4.60
2008,01,24,14,00,4.60
2008,01,24,14,01,4.60
2008,01,24,14,02,4.60
2008,01,24,14,03,4.60
2008,01,24,14,04,4.60
2008,01,24,14,05,4.70
2008,01,24,14,06,4.60
2008,01,24,14,07,4.60
2008,01,24,14,08,4.70
2008,01,24,14,09,4.70
2008,01,24,14,10,4.70
2008,01,24,14,11,4.70
2008,01,24,14,12,4.70
2008,01,24,14,13,4.60
2008,01,24,14,14,4.60
2008,01,24,14,15,4.60
2008,01,24,14,16,4.60
2008,01,24,14,17,4.50
2008,01,24,14,18,4.50
2008,01,24,14,19,4.50
2008,01,24,14,20,4.40
2008,01,24,14,21,4.40
2008,01,24,14,22,4.40
2008,01,24,14,23,4.40
2008,01,24,14,24,4.40
2008,01,24,14,25,4.40
2008,01,24,14,26,4.40
2008,01,24,14,27,4.30
2008,01,24,14,28,4.40
2008,01,24,14,29,4.40
2008,01,24,14,30,4.40
2008,01,24,14,31,4.50
2008,01,24,14,32,4.50
2008,01,24,14,33,4.50
2008,01,24,14,34,4.60
2008,01,24,14,35,4.60
2008,01,24,14,36,4.70
2008,01,24,14,37,4.70
2008,01,24,14,38,4.80
2008,01,24,14,39,4.70
2008,01,24,14,40,4.70
2008,01,24,14,41,4.70
2008,01,24,14,42,4.60
2008,01,24,14,43,4.60
2008,01,24,14,44,4.60
2008,01,24,14,45,4.60
2008,01,24,14,46,4.60
2008,01,24,14,47,4.60
2008,01,24,14,48,4.60
2008,01,24,14,49,4.60
2008,01,24,14,50,4.50
2008,01,24,14,51,4.50
2008,01,24,14,52,4.50
2008,01,24,14,53,4.40
2008,01,24,14,54,4.40
2008,01,24,14,55,4.40
2008,01,24,14,56,4.40
2008,01,24,14,57,4.30
2008,01,24,14,58,4.30
2008,01,24,14,59,4.20
2008,01,24,15,00,4.20
2008,01,24,15,01,4.20
2008,01,24,15,02,4.10
2008,01,24,15,03,4.10
2008,01,24,15,04,4.10
2008,01,24,15,05,4.10
2008,01,24,15,06,4.10
2008,01,24,15,07,4.10
2008,01,24,15,08,4.10
2008,01,24,15,09,4.10
2008,01,24,15,10,4.10
2008,01,24,15,11,4.10
2008,01,24,15,12,4.10
2008,01,24,15,13,4.10
2008,01,24,15,14,4.10
2008,01,24,15,15,4.10
2008,01,24,15,16,4.10
2008,01,24,15,17,4.10
2008,01,24,15,18,4.10
2008,01,24,15,19,4.10
2008,01,24,15,20,4.10
2008,01,24,15,21,4.10
2008,01,24,15,22,4.10
2008,01,24,15,23,4.10
2008,01,24,15,24,4.10
2008,01,24,15,25,4.10
2008,01,24,15,26,4.10
2008,01,24,15,27,4.10
2008,01,24,15,28,4.10
2008,01,24,15,29,4.10
2008,01,24,15,30,4.10
2008,01,24,15,31,4.00
2008,01,24,15,32,4.00
2008,01,24,15,33,3.90
2008,01,24,15,34,3.90
2008,01,24,15,35,3.80
2008,01,24,15,36,3.70
2008,01,24,15,37,3.70
2008,01,24,15,38,3.60
2008,01,24,15,39,3.60
2008,01,24,15,40,3.60
2008,01,24,15,41,3.50
2008,01,24,15,42,3.50
2008,01,24,15,43,3.40
2008,01,24,15,44,3.40
2008,01,24,15,45,3.30
2008,01,24,15,46,3.30
2008,01,24,15,47,3.20
2008,01,24,15,48,3.20
2008,01,24,15,49,3.10
2008,01,24,15,50,3.10
2008,01,24,15,51,3.10
2008,01,24,15,52,3.10
2008,01,24,15,53,3.10
2008,01,24,15,54,3.00
2008,01,24,15,55,3.00
2008,01,24,15,56,3.00
2008,01,24,15,57,3.00
2008,01,24,15,58,3.00
2008,01,24,15,59,2.90
2008,01,24,16,00,2.90
2008,01,24,16,01,2.90
2008,01,24,16,02,2.90
2008,01,24,16,03,2.90
2008,01,24,16,04,2.90
2008,01,24,16,05,3.00
2008,01,24,16,06,3.00
2008,01,24,16,07,3.10
2008,01,24,16,08,3.10
2008,01,24,16,09,3.10
2008,01,24,16,10,3.10
2008,01,24,16,11,3.10
2008,01,24,16,12,3.20
2008,01,24,16,13,3.20
2008,01,24,16,14,3.20
2008,01,24,16,15,3.20
2008,01,24,16,16,3.20
2008,01,24,16,17,3.20
2008,01,24,16,18,3.20
2008,01,24,16,19,3.10
2008,01,24,16,20,3.10
2008,01,24,16,21,3.10
2008,01,24,16,22,3.00
2008,01,24,16,23,3.00
2008,01,24,16,24,2.90
2008,01,24,16,25,2.80
2008,01,24,16,26,2.70
2008,01,24,16,27,2.70
2008,01,24,16,28,2.60
2008,01,24,16,29,2.60
2008,01,24,16,30,2.60
2008,01,24,16,31,2.70
2008,01,24,16,32,2.70
2008,01,24,16,33,2.60
2008,01,24,16,34,2.60
2008,01,24,16,35,2.60
2008,01,24,16,36,2.50
2008,01,24,16,37,2.50
2008,01,24,16,38,2.40
2008,01,24,16,39,2.40
2008,01,24,16,40,2.30
2008,01,24,16,41,2.30
2008,01,24,16,42,2.30
2008,01,24,16,43,2.20
2008,01,24,16,44,2.20
2008,01,24,16,45,2.20
2008,01,24,16,46,2.20
2008,01,24,16,47,2.20
2008,01,24,16,48,2.20
2008,01,24,16,49,2.20
2008,01,24,16,50,2.20
2008,01,24,16,51,2.20
2008,01,24,16,52,2.10
2008,01,24,16,53,2.10
2008,01,24,16,54,2.00
2008,01,24,16,55,2.00
2008,01,24,16,56,1.90
2008,01,24,16,57,1.80
2008,01,24,16,58,1.70
2008,01,24,16,59,1.70
2008,01,24,17,00,1.60
2008,01,24,17,01,1.50
2008,01,24,17,02,1.50
2008,01,24,17,03,1.40
2008,01,24,17,04,1.30
2008,01,24,17,05,1.30
2008,01,24,17,06,1.30
2008,01,24,17,07,1.30
2008,01,24,17,08,1.30
2008,01,24,17,09,1.30
2008,01,24,17,10,1.30
2008,01,24,17,11,1.20
2008,01,24,17,12,1.20
2008,01,24,17,13,1.20
2008,01,24,17,14,1.20
2008,01,24,17,15,1.20
2008,01,24,17,16,1.20
2008,01,24,17,17,1.10
2008,01,24,17,18,1.10
2008,01,24,17,19,1.10
2008,01,24,17,20,1.10
2008,01,24,17,21,1.00
2008,01,24,17,22,1.00
2008,01,24,17,23,0.90
2008,01,24,17,24,0.90
2008,01,24,17,25,0.90
2008,01,24,17,26,0.90
2008,01,24,17,27,0.90
2008,01,24,17,28,0.80
2008,01,24,17,29,0.80
2008,01,24,17,30,0.80
2008,01,24,17,31,0.80
2008,01,24,17,32,0.80
2008,01,24,17,33,0.80
2008,01,24,17,34,0.80
2008,01,24,17,35,0.80
2008,01,24,17,36,0.70
2008,01,24,17,37,0.70
2008,01,24,17,38,0.70
2008,01,24,17,39,0.70
2008,01,24,17,40,0.70
2008,01,24,17,41,0.60
2008,01,24,17,42,0.60
2008,01,24,17,43,0.60
2008,01,24,17,44,0.50
2008,01,24,17,45,0.50
2008,01,24,17,46,0.40
2008,01,24,17,47,0.40
2008,01,24,17,48,0.30
2008,01,24,17,49,0.30
2008,01,24,17,50,0.30
2008,01,24,17,51,0.20
2008,01,24,17,52,0.20
2008,01,24,17,53,0.20
2008,01,24,17,54,0.20
2008,01,24,17,55,0.20
2008,01,24,17,56,0.20
2008,01,24,17,57,0.20
2008,01,24,17,58,0.30
2008,01,24,17,59,0.30
2008,01,24,18,00,0.30
2008,01,24,18,01,0.30
2008,01,24,18,02,0.40
2008,01,24,18,03,0.40
2008,01,24,18,04,0.30
2008,01,24,18,05,0.30
2008,01,24,18,06,0.30
2008,01,24,18,07,0.30
2008,01,24,18,08,0.20
2008,01,24,18,09,0.20
2008,01,24,18,10,0.10
2008,01,24,18,11,0.10
2008,01,24,18,12,0.10
2008,01,24,18,13,0.00
2008,01,24,18,14,0.00
2008,01,24,18,15,-0.10
2008,01,24,18,16,-0.10
2008,01,24,18,17,-0.10
2008,01,24,18,18,-0.20
2008,01,24,18,19,-0.20
2008,01,24,18,20,-0.20
2008,01,24,18,21,-0.20
2008,01,24,18,22,-0.30
2008,01,24,18,23,-0.30
2008,01,24,18,24,-0.30
2008,01,24,18,25,-0.30
2008,01,24,18,26,-0.30
2008,01,24,18,27,-0.30
2008,01,24,18,28,-0.30
2008,01,24,18,29,-0.30
2008,01,24,18,30,-0.30
2008,01,24,18,31,-0.30
2008,01,24,18,32,-0.30
2008,01,24,18,33,-0.40
2008,01,24,18,34,-0.40
2008,01,24,18,35,-0.40
2008,01,24,18,36,-0.40
2008,01,24,18,37,-0.40
2008,01,24,18,38,-0.40
2008,01,24,18,39,-0.40
2008,01,24,18,40,-0.40
2008,01,24,18,41,-0.50
2008,01,24,18,42,-0.50
2008,01,24,18,43,-0.50
2008,01,24,18,44,-0.50
2008,01,24,18,45,-0.60
2008,01,24,18,46,-0.60
2008,01,24,18,47,-0.60
2008,01,24,18,48,-0.60
2008,01,24,18,49,-0.60
2008,01,24,18,50,-0.60
2008,01,24,18,51,-0.60
2008,01,24,18,52,-0.60
2008,01,24,18,53,-0.60
2008,01,24,18,54,-0.70
2008,01,24,18,55,-0.70
2008,01,24,18,56,-0.70
2008,01,24,18,57,-0.70
2008,01,24,18,58,-0.70
2008,01,24,18,59,-0.70
2008,01,24,19,00,-0.70
2008,01,24,19,01,-0.70
2008,01,24,19,02,-0.70
2008,01,24,19,03,-0.70
2008,01,24,19,04,-0.70
2008,01,24,19,05,-0.70
2008,01,24,19,06,-0.70
2008,01,24,19,07,-0.70
2008,01,24,19,08,-0.70
2008,01,24,19,09,-0.70
2008,01,24,19,10,-0.70
2008,01,24,19,11,-0.70
2008,01,24,19,12,-0.70
2008,01,24,19,13,-0.70
2008,01,24,19,14,-0.70
2008,01,24,19,15,-0.70
2008,01,24,19,16,-0.70
2008,01,24,19,17,-0.70
2008,01,24,19,18,-0.70
2008,01,24,19,19,-0.80
2008,01,24,19,20,-0.80
2008,01,24,19,21,-0.80
2008,01,24,19,22,-0.80
2008,01,24,19,23,-0.80
2008,01,24,19,24,-0.80
2008,01,24,19,25,-0.80
2008,01,24,19,26,-0.80
2008,01,24,19,27,-0.80
2008,01,24,19,28,-0.80
2008,01,24,19,29,-0.80
2008,01,24,19,30,-0.80
2008,01,24,19,31,-0.80
2008,01,24,19,32,-0.80
2008,01,24,19,33,-0.80
2008,01,24,19,34,-0.80
2008,01,24,19,35,-0.80
2008,01,24,19,36,-0.80
2008,01,24,19,37,-0.80
2008,01,24,19,38,-0.80
2008,01,24,19,39,-0.80
2008,01,24,19,40,-0.80
2008,01,24,19,41,-0.80
2008,01,24,19,42,-0.80
2008,01,24,19,43,-0.80
2008,01,24,19,44,-0.80
2008,01,24,19,45,-0.80
2008,01,24,19,46,-0.90
2008,01,24,19,47,-0.90
2008,01,24,19,48,-0.90
2008,01,24,19,49,-0.90
2008,01,24,19,50,-1.00
2008,01,24,19,51,-1.00
2008,01,24,19,52,-1.00
2008,01,24,19,53,-1.10
2008,01,24,19,54,-1.00
2008,01,24,19,55,-1.00
2008,01,24,19,56,-0.90
2008,01,24,19,57,-0.90
2008,01,24,19,58,-0.90
2008,01,24,19,59,-0.90
2008,01,24,20,00,-0.90
2008,01,24,20,01,-0.90
2008,01,24,20,02,-0.90
2008,01,24,20,03,-0.90
2008,01,24,20,04,-0.90
2008,01,24,20,05,-0.90
2008,01,24,20,06,-0.90
2008,01,24,20,07,-0.90
2008,01,24,20,08,-0.80
2008,01,24,20,09,-0.80
2008,01,24,20,10,-0.80
2008,01,24,20,11,-0.80
2008,01,24,20,12,-0.80
2008,01,24,20,13,-0.80
2008,01,24,20,14,-0.80
2008,01,24,20,15,-0.90
2008,01,24,20,16,-0.90
2008,01,24,20,17,-0.90
2008,01,24,20,18,-0.90
2008,01,24,20,19,-0.90
2008,01,24,20,20,-0.90
2008,01,24,20,21,-0.80
2008,01,24,20,22,-0.70
2008,01,24,20,23,-0.70
2008,01,24,20,24,-0.70
2008,01,24,20,25,-0.70
2008,01,24,20,26,-0.70
2008,01,24,20,27,-0.70
2008,01,24,20,28,-0.80
2008,01,24,20,29,-0.80
2008,01,24,20,30,-0.80
2008,01,24,20,31,-0.80
2008,01,24,20,32,-0.80
2008,01,24,20,33,-0.80
2008,01,24,20,34,-0.80
2008,01,24,20,35,-0.90
2008,01,24,20,36,-0.90
2008,01,24,20,37,-0.90
2008,01,24,20,38,-1.00
2008,01,24,20,39,-1.00
2008,01,24,20,40,-1.10
2008,01,24,20,41,-1.10
2008,01,24,20,42,-1.10
2008,01,24,20,43,-1.10
2008,01,24,20,44,-1.10
2008,01,24,20,45,-1.10
2008,01,24,20,46,-1.10
2008,01,24,20,47,-1.20
2008,01,24,20,48,-1.20
2008,01,24,20,49,-1.20
2008,01,24,20,50,-1.20
2008,01,24,20,51,-1.20
2008,01,24,20,52,-1.20
2008,01,24,20,53,-1.20
2008,01,24,20,54,-1.30
2008,01,24,20,55,-1.30
2008,01,24,20,56,-1.30
2008,01,24,20,57,-1.30
2008,01,24,20,58,-1.30
2008,01,24,20,59,-1.30
2008,01,24,21,00,-1.30
2008,01,24,21,01,-1.30
2008,01,24,21,02,-1.30
2008,01,24,21,03,-1.30
2008,01,24,21,04,-1.30
2008,01,24,21,05,-1.40
2008,01,24,21,06,-1.40
2008,01,24,21,07,-1.30
2008,01,24,21,08,-1.30
2008,01,24,21,09,-1.30
2008,01,24,21,10,-1.30
2008,01,24,21,11,-1.30
2008,01,24,21,12,-1.30
2008,01,24,21,13,-1.40
2008,01,24,21,14,-1.40
2008,01,24,21,15,-1.40
2008,01,24,21,16,-1.40
2008,01,24,21,17,-1.40